VLG2621 LFKJ-LIPR

Flight info

Callsign VLG2621
Flight time 0h 43m
Altitude 24000
Route BTA L146 MOULE/N0378F190 L146 ELB/N0373F180 DCT IBRID DCT BAGNO
Aircraft A321/M-SDE3FGHIRWY/LB1

Departure

Time 2026-05-08 20:55
Airport Ajaccio Napoléon Bonaparte airport (LFKJ)

Arrival

Time 2026-05-08 21:38
Airport Federico Fellini International Airport (LIPR)
Time Latitude Longitude Altitude Speed Heading
2026-05-08 20:54 41.81750 8.77988 14558 ft 381 kts
2026-05-08 20:55 41.84406 8.78277 15119 ft 385 kts
2026-05-08 20:55 41.87081 8.78569 15661 ft 388 kts
2026-05-08 20:55 41.89782 8.78868 16192 ft 391 kts
2026-05-08 20:55 41.92510 8.79174 16703 ft 394 kts
2026-05-08 20:56 41.95258 8.79484 17212 ft 397 kts
2026-05-08 20:56 41.98021 8.79796 17701 ft 401 kts
2026-05-08 20:56 42.00814 8.80108 18177 ft 404 kts
2026-05-08 20:56 42.03621 8.80421 18655 ft 406 kts
2026-05-08 20:57 42.06442 8.80736 19116 ft 408 kts
2026-05-08 20:57 42.09284 8.81055 19574 ft 411 kts
2026-05-08 20:57 42.12144 8.81375 20005 ft 414 kts
2026-05-08 20:57 42.15030 8.81699 20422 ft 417 kts
2026-05-08 20:58 42.17927 8.82029 20862 ft 419 kts
2026-05-08 20:58 42.20815 8.82726 21249 ft 424 kts 15°
2026-05-08 20:58 42.23571 8.84184 21642 ft 429 kts 26°
2026-05-08 20:58 42.26060 8.86343 22023 ft 433 kts 38°
2026-05-08 20:59 42.28225 8.89179 22408 ft 437 kts 50°
2026-05-08 20:59 42.30006 8.92534 22775 ft 441 kts 55°
2026-05-08 20:59 42.31725 8.95973 23149 ft 443 kts 55°
2026-05-08 20:59 42.33456 8.99432 23506 ft 445 kts 55°
2026-05-08 21:00 42.35199 9.02909 23853 ft 448 kts 55°
2026-05-08 21:00 42.36951 9.06400 24045 ft 450 kts 55°
2026-05-08 21:00 42.38715 9.09921 24086 ft 452 kts 55°
2026-05-08 21:00 42.40475 9.13448 24079 ft 452 kts 55°
2026-05-08 21:01 42.42239 9.16979 24082 ft 453 kts 55°
2026-05-08 21:01 42.43999 9.20506 24084 ft 453 kts 55°
2026-05-08 21:01 42.45759 9.24043 24082 ft 453 kts 55°
2026-05-08 21:01 42.47520 9.27589 24077 ft 453 kts 55°
2026-05-08 21:02 42.49277 9.31131 24082 ft 453 kts 55°
2026-05-08 21:02 42.51031 9.34673 24081 ft 452 kts 56°
2026-05-08 21:02 42.52784 9.38215 24076 ft 453 kts 56°
2026-05-08 21:02 42.54537 9.41762 24086 ft 453 kts 55°
2026-05-08 21:03 42.56230 9.45365 24083 ft 453 kts 61°
2026-05-08 21:03 42.57536 9.49258 24073 ft 454 kts 70°
2026-05-08 21:03 42.58393 9.53374 24083 ft 454 kts 77°
2026-05-08 21:03 42.59109 9.57542 24071 ft 454 kts 77°
2026-05-08 21:04 42.59828 9.61713 24079 ft 454 kts 76°
2026-05-08 21:04 42.60556 9.65887 24086 ft 454 kts 77°
2026-05-08 21:04 42.61284 9.70058 24083 ft 454 kts 77°
2026-05-08 21:04 42.62008 9.74232 24083 ft 454 kts 77°
2026-05-08 21:05 42.62730 9.78404 24075 ft 454 kts 77°
2026-05-08 21:05 42.63446 9.82581 24074 ft 454 kts 77°
2026-05-08 21:05 42.64158 9.86755 24076 ft 454 kts 77°
2026-05-08 21:05 42.64869 9.90935 24077 ft 454 kts 77°
2026-05-08 21:06 42.65583 9.95120 24086 ft 454 kts 77°
2026-05-08 21:06 42.66297 9.99309 24075 ft 455 kts 77°
2026-05-08 21:06 42.67009 10.03493 24078 ft 452 kts 77°
2026-05-08 21:06 42.67696 10.07530 24081 ft 434 kts 77°
2026-05-08 21:07 42.68359 10.11445 24078 ft 416 kts 77°
2026-05-08 21:07 42.68995 10.15199 24078 ft 399 kts 77°
2026-05-08 21:07 42.69602 10.18802 24080 ft 383 kts 77°
2026-05-08 21:07 42.70180 10.22258 24075 ft 367 kts 77°
2026-05-08 21:08 42.70735 10.25584 24084 ft 354 kts 77°
2026-05-08 21:08 42.71278 10.28831 24082 ft 351 kts 77°
2026-05-08 21:08 42.71817 10.32065 24081 ft 350 kts 77°
2026-05-08 21:08 42.72494 10.35238 24084 ft 349 kts 69°
2026-05-08 21:09 42.73465 10.38261 24080 ft 349 kts 61°
2026-05-08 21:09 42.74711 10.41085 24086 ft 348 kts 54°
2026-05-08 21:09 42.76202 10.43683 24086 ft 348 kts 47°
2026-05-08 21:09 42.77888 10.46041 24083 ft 347 kts 43°
2026-05-08 21:10 42.79603 10.48346 24082 ft 347 kts 43°
2026-05-08 21:10 42.81320 10.50657 24078 ft 347 kts 43°
2026-05-08 21:10 42.83039 10.52975 24085 ft 347 kts 44°
2026-05-08 21:10 42.84750 10.55290 24082 ft 347 kts 43°
2026-05-08 21:11 42.86464 10.57613 24091 ft 347 kts 44°
2026-05-08 21:11 42.88173 10.59932 24090 ft 347 kts 43°
2026-05-08 21:11 42.89885 10.62249 24092 ft 347 kts 43°
2026-05-08 21:11 42.91597 10.64564 24086 ft 347 kts 43°
2026-05-08 21:12 42.93310 10.66878 24084 ft 346 kts 44°
2026-05-08 21:12 42.95020 10.69195 24086 ft 346 kts 44°
2026-05-08 21:12 42.96727 10.71514 24076 ft 346 kts 44°
2026-05-08 21:12 42.98436 10.73839 24071 ft 346 kts 44°
2026-05-08 21:13 43.00143 10.76160 24084 ft 346 kts 44°
2026-05-08 21:13 43.01851 10.78482 24078 ft 346 kts 44°
2026-05-08 21:13 43.03559 10.80806 24073 ft 346 kts 44°
2026-05-08 21:13 43.05262 10.83130 24071 ft 347 kts 44°
2026-05-08 21:14 43.06942 10.85430 24082 ft 346 kts 44°
2026-05-08 21:14 43.08643 10.87757 24081 ft 345 kts 44°
2026-05-08 21:14 43.09788 10.89324 24081 ft 345 kts 44°
2026-05-08 21:14 43.11485 10.91642 24081 ft 344 kts 44°
2026-05-08 21:15 43.13730 10.94709 24076 ft 344 kts 44°
2026-05-08 21:15 43.15423 10.97021 24080 ft 344 kts 44°
2026-05-08 21:15 43.17117 10.99340 24067 ft 343 kts 44°
2026-05-08 21:15 43.18802 11.01651 24073 ft 343 kts 44°
2026-05-08 21:16 43.19944 11.03219 24079 ft 344 kts 44°
2026-05-08 21:16 43.21629 11.05537 24082 ft 344 kts 44°
2026-05-08 21:16 43.23319 11.07865 24074 ft 344 kts 44°
2026-05-08 21:16 43.24978 11.10156 24080 ft 343 kts 44°
2026-05-08 21:17 43.26662 11.12479 24070 ft 343 kts 44°
2026-05-08 21:17 43.28348 11.14807 24073 ft 343 kts 44°
2026-05-08 21:17 43.30029 11.17131 24080 ft 343 kts 44°
2026-05-08 21:17 43.31709 11.19457 24083 ft 343 kts 44°
2026-05-08 21:18 43.33394 11.21788 24080 ft 343 kts 44°
2026-05-08 21:18 43.35075 11.24110 24088 ft 343 kts 44°
2026-05-08 21:18 43.36758 11.26438 24085 ft 343 kts 44°
2026-05-08 21:18 43.38437 11.28763 24086 ft 343 kts 44°
2026-05-08 21:19 43.40121 11.31097 23798 ft 343 kts 44°
2026-05-08 21:19 43.41788 11.33411 23555 ft 340 kts 44°
2026-05-08 21:19 43.43426 11.35690 23306 ft 338 kts 44°
2026-05-08 21:19 43.45079 11.37989 23055 ft 336 kts 44°
2026-05-08 21:20 43.46719 11.40268 22804 ft 335 kts 43°
2026-05-08 21:20 43.48479 11.42360 22554 ft 332 kts 36°
2026-05-08 21:20 43.50378 11.44158 22304 ft 331 kts 32°
2026-05-08 21:20 43.52290 11.45915 22053 ft 329 kts 33°
2026-05-08 21:21 43.54192 11.47672 21803 ft 328 kts 33°
2026-05-08 21:21 43.56082 11.49429 21559 ft 327 kts 33°
2026-05-08 21:21 43.57961 11.51179 21217 ft 325 kts 33°
2026-05-08 21:21 43.59826 11.52916 20848 ft 323 kts 33°
2026-05-08 21:22 43.61690 11.54648 20474 ft 321 kts 33°
2026-05-08 21:22 43.63539 11.56364 20107 ft 319 kts 33°
2026-05-08 21:22 43.65353 11.58047 19770 ft 317 kts 33°
2026-05-08 21:22 43.67202 11.59767 19413 ft 316 kts 33°
2026-05-08 21:23 43.69019 11.61458 19051 ft 314 kts 33°
2026-05-08 21:23 43.70802 11.63120 18720 ft 312 kts 33°
2026-05-08 21:23 43.72595 11.64795 18371 ft 310 kts 33°
2026-05-08 21:23 43.74379 11.66463 18017 ft 309 kts 33°
2026-05-08 21:24 43.76156 11.68125 17649 ft 307 kts 33°
2026-05-08 21:24 43.77921 11.69775 17307 ft 305 kts 33°
2026-05-08 21:24 43.79677 11.71417 16945 ft 304 kts 33°
2026-05-08 21:24 43.81421 11.73051 16601 ft 302 kts 33°
2026-05-08 21:25 43.83154 11.74679 16225 ft 299 kts 34°
2026-05-08 21:25 43.84867 11.76290 15855 ft 295 kts 34°
2026-05-08 21:25 43.86551 11.77872 15397 ft 291 kts 34°
2026-05-08 21:25 43.88190 11.79470 14956 ft 286 kts 39°
2026-05-08 21:26 43.89600 11.81386 14675 ft 282 kts 50°
2026-05-08 21:26 43.90760 11.83567 14428 ft 281 kts 54°
2026-05-08 21:26 43.91883 11.85769 14070 ft 278 kts 54°
2026-05-08 21:26 43.92996 11.87956 13713 ft 277 kts 55°
2026-05-08 21:27 43.94099 11.90130 13363 ft 275 kts 55°
2026-05-08 21:27 43.95182 11.92266 13001 ft 273 kts 55°
2026-05-08 21:27 43.96272 11.94417 12643 ft 272 kts 55°
2026-05-08 21:27 43.97355 11.96556 12281 ft 270 kts 55°
2026-05-08 21:28 43.98446 11.98706 11910 ft 268 kts 55°
2026-05-08 21:28 43.99499 12.00783 11550 ft 266 kts 55°
2026-05-08 21:28 44.00573 12.02902 11181 ft 264 kts 55°
2026-05-08 21:28 44.01627 12.04985 10817 ft 263 kts 55°
2026-05-08 21:29 44.02675 12.07062 10456 ft 262 kts 55°
2026-05-08 21:29 44.03708 12.09108 10089 ft 261 kts 56°
2026-05-08 21:29 44.04747 12.11164 9732 ft 260 kts 56°
2026-05-08 21:29 44.05784 12.13222 9358 ft 259 kts 56°
2026-05-08 21:30 44.06816 12.15270 8986 ft 258 kts 56°
2026-05-08 21:30 44.07840 12.17306 8613 ft 254 kts 56°
2026-05-08 21:30 44.08828 12.19270 8243 ft 241 kts 56°
2026-05-08 21:30 44.09765 12.21135 7901 ft 230 kts 56°
2026-05-08 21:31 44.10671 12.22941 7602 ft 226 kts 56°
2026-05-08 21:31 44.11572 12.24735 7253 ft 225 kts 56°
2026-05-08 21:31 44.12485 12.26487 6898 ft 223 kts 53°
2026-05-08 21:31 44.13462 12.28165 6536 ft 221 kts 51°
2026-05-08 21:32 44.14434 12.29770 6181 ft 214 kts 50°
2026-05-08 21:32 44.15383 12.31326 5811 ft 208 kts 51°
2026-05-08 21:32 44.16308 12.32857 5444 ft 205 kts 53°
2026-05-08 21:32 44.16857 12.34632 5096 ft 199 kts 84°
2026-05-08 21:33 44.16645 12.36471 4771 ft 192 kts 116°
2026-05-08 21:33 44.15801 12.37875 4443 ft 190 kts 140°
2026-05-08 21:33 44.14802 12.39022 4110 ft 185 kts 140°
2026-05-08 21:33 44.13828 12.40144 3791 ft 178 kts 140°
2026-05-08 21:34 44.13011 12.41393 3503 ft 172 kts 127°
2026-05-08 21:34 44.12295 12.42695 3167 ft 169 kts 128°
2026-05-08 21:34 44.11587 12.43976 2896 ft 166 kts 128°
2026-05-08 21:34 44.10891 12.45243 2666 ft 164 kts 128°
2026-05-08 21:35 44.10190 12.46500 2438 ft 164 kts 128°
2026-05-08 21:35 44.09491 12.47751 2212 ft 163 kts 128°
2026-05-08 21:35 44.08795 12.48991 1997 ft 162 kts 127°
2026-05-08 21:35 44.08134 12.50192 1798 ft 154 kts 127°
2026-05-08 21:36 44.07495 12.51360 1588 ft 150 kts 127°
2026-05-08 21:36 44.06860 12.52502 1384 ft 149 kts 127°
2026-05-08 21:36 44.06227 12.53643 1162 ft 149 kts 128°
2026-05-08 21:36 44.05598 12.54785 927 ft 148 kts 127°
2026-05-08 21:37 44.04965 12.55907 726 ft 147 kts 128°
2026-05-08 21:37 44.04346 12.57014 555 ft 147 kts 128°
2026-05-08 21:37 44.03723 12.58138 393 ft 147 kts 128°
2026-05-08 21:37 44.03098 12.59264 213 ft 146 kts 128°
2026-05-08 21:38 44.02480 12.60369 50 ft 139 kts 128°
2026-05-08 21:38 44.01964 12.61297 46 ft 88 kts 128°
2026-05-08 21:38 44.01720 12.61730 51 ft 38 kts 128°
2026-05-08 21:38 44.01603 12.61939 52 ft 22 kts 128°
2026-05-08 21:39 44.01510 12.62108 48 ft 22 kts 127°
2026-05-08 21:39 44.01444 12.62229 50 ft 10 kts 127°
2026-05-08 21:39 44.01396 12.62315 51 ft 11 kts 127°
2026-05-08 21:39 44.01378 12.62405 51 ft 9 kts 63°
2026-05-08 21:40 44.01416 12.62459 52 ft 6 kts 40°
2026-05-08 21:40 44.01455 12.62505 52 ft 12 kts 39°
2026-05-08 21:40 44.01531 12.62554 52 ft 12 kts 25°
2026-05-08 21:41 44.01574 12.62582 54 ft 0 kts 65°